Temperature
12 12 12 12 12 12 12 12 12 12 12 12 12 12 12 12 12 12 12 11 11 11 11 11 11 10 10 10 10 10 10 10 10 10 10 10 10 10 9 9 9 9 9
11 11 11 11 11 11 12 12 12 12 12 12 12 12 12 12 12 11 11 11 11 11 11 11 10 10 10 10 10 10 10 10 10 10 10 10 10 9 9 9 9 9 9
11 11 11 11 11 11 11 11 11 11 11 11 12 12 11 11 11 11 11 11 11 11 11 11 11 10 10 10 10 10 10 10 10 10 9 9 9 9 9 9 9 9 8
10 10 10 11 11 11 11 11 11 11 11 11 11 11 11 11 11 11 11 11 10 10 10 10 10 10 10 10 10 10 10 9 9 9 9 9 9 9 9 9 8 8 8
10 10 10 10 10 10 10 10 10 10 10 11 11 11 11 11 10 10 10 10 10 10 10 10 10 10 10 10 9 9 9 9 9 9 9 9 9 8 8 8 8 8 8
9 9 9 10 10 10 10 10 10 10 10 10 10 10 10 10 10 10 10 10 10 10 10 10 10 10 9 9 9 9 9 9 9 9 9 8 8 8 8 8 8 8 8
9 9 9 9 9 9 9 9 9 9 9 9 10 10 10 10 10 10 10 10 9 9 9 9 9 9 9 9 9 9 9 9 8 8 8 8 8 8 8 8 7 7 7
8 8 8 9 9 9 9 9 9 9 9 9 9 9 9 9 9 9 9 9 9 9 9 9 9 9 9 9 9 9 8 8 8 8 8 8 8 7 7 7 7 7 7
8 8 8 8 8 8 9 9 9 8 8 8 8 8 8 8 8 9 9 9 9 8 8 8 8 8 8 8 8 8 8 8 8 8 7 7 7 7 7 7 7 7 6
7 7 7 7 8 8 8 8 8 8 8 8 8 8 8 8 7 8 8 8 8 8 8 8 8 8 8 8 8 8 8 8 7 7 7 7 7 7 7 7 6 6 6
7 7 7 7 7 7 7 8 8 8 8 8 7 8 8 8 7 7 7 8 8 8 8 8 8 7 7 7 7 7 7 7 7 7 7 7 7 7 7 6 6 6 6
6 6 6 7 7 7 7 7 7 7 7 7 7 7 7 7 7 7 6 7 7 7 7 7 7 7 7 7 7 7 7 7 7 7 7 7 7 6 6 6 6 5 5
6 6 6 6 6 6 7 7 7 7 7 7 7 6 6 6 6 6 6 6 6 7 7 7 7 6 6 6 7 6 6 6 6 6 6 6 6 6 6 6 5 5 5
6 6 6 6 6 6 6 6 6 6 6 6 6 6 6 6 6 6 6 5 5 5 6 6 6 6 6 6 6 6 6 6 6 6 6 6 6 6 6 5 5 5 5
5 5 5 5 5 5 5 5 5 5 5 5 5 5 5 5 5 5 5 5 5 4 5 6 6 6 6 6 6 6 6 6 6 6 6 5 5 5 5 5 5 5 5
5 5 5 5 5 5 5 5 5 5 5 5 5 5 5 5 4 5 5 5 5 4 4 5 5 5 5 5 5 5 5 5 6 5 5 5 5 5 5 5 4 4 4
4 4 4 4 4 4 4 4 4 4 4 4 4 4 4 4 4 4 4 4 4 4 4 4 5 5 4 5 5 5 5 5 5 5 5 5 5 4 4 4 4 4 4
4 4 4 4 4 4 4 4 4 4 4 4 3 3 4 4 4 4 4 4 4 4 3 4 4 4 4 4 4 4 5 5 5 5 5 4 4 4 4 4 4 4 4
4 4 3 3 3 3 3 3 3 3 3 3 3 3 3 3 3 3 3 3 3 3 3 3 3 3 4 4 4 4 4 4 4 4 4 4 4 4 4 3 3 3 3
3 3 3 3 3 3 3 3 3 3 2 2 2 2 2 3 3 3 3 2 3 3 2 2 3 3 3 3 3 3 4 4 4 4 4 3 3 3 3 3 3 3 3
3 3 3 3 3 2 2 2 2 2 2 2 2 2 2 2 2 2 2 2 2 2 2 2 2 3 3 3 2 2 3 3 3 3 3 3 3 3 3 3 3 2 3
2 2 2 2 2 2 2 2 2 1 1 1 1 2 2 2 2 2 1 1 1 2 2 2 2 2 2 2 2 2 2 2 2 2 2 3 3 3 3 2 2 2 2
2 2 2 2 2 2 1 1 1 1 1 1 1 1 1 1 1 1 1 1 1 1 1 1 1 1 1 1 1 1 1 1 1 1 1 2 2 2 2 2 2 2 2
1 1 1 1 1 1 1 1 1 1 1 0 0 0 0 0 0 1 1 1 1 1 1 1 1 1 1 1 0 0 0 0 1 1 1 1 2 2 2 2 2 2 2
1 1 1 1 1 1 0 0 0 -0 -0 -0 -0 0 0 -0 -0 -0 0 0 1 1 1 1 1 1 1 1 0 -0 -0 -0 0 0 0 0 1 1 2 2 2 1 1
0 0 0 0 0 0 -0 -0 -0 -0 -1 -1 -1 -1 -1 -1 -1 -1 -0 -0 -0 0 0 1 1 1 0 0 0 -0 -1 -1 -1 -1 -1 -1 -0 -0 -0 1 1 1 1
Wind_Speed
2 2 3 3 4 3 2 2 2 2 2 2 2 3 2 3 2 2 1 2 1 0 0 1 1 2 3 3 4 5 5 5 5 6 6 6 6 6 7 7 7 7 8
2 2 2 2 2 2 2 1 1 2 1 1 2 2 2 2 2 1 1 1 1 1 0 0 2 3 4 4 4 5 5 6 6 7 7 7 7 7 8 8 8 8 8
2 1 1 1 2 2 2 2 2 2 1 1 1 1 1 1 2 1 1 1 1 0 0 1 2 3 4 5 5 5 5 6 6 7 8 8 7 8 8 8 8 9 9
2 1 1 1 2 2 2 1 1 1 1 1 0 0 0 1 1 1 1 1 1 0 1 1 2 3 4 5 5 5 6 6 7 7 8 8 8 8 9 9 9 9 9
1 1 1 1 2 1 1 0 1 1 0 1 0 0 0 1 1 1 1 1 1 0 1 1 2 3 4 5 5 6 6 6 7 8 8 8 8 8 8 9 9 9 9
1 1 1 1 1 0 1 1 1 1 0 0 0 0 0 1 1 1 1 0 0 1 0 1 2 3 4 5 5 6 7 7 7 8 9 9 8 8 9 10 9 9 9
1 1 1 1 1 0 0 0 1 2 1 1 1 0 1 1 1 1 1 1 1 1 0 1 2 2 3 4 5 6 7 8 8 9 9 9 8 9 9 10 10 10 10
0 0 0 1 1 0 0 0 1 1 1 1 1 1 1 1 1 1 1 2 2 0 0 1 1 2 2 3 5 7 8 9 8 9 10 9 8 9 9 10 10 10 10
1 1 1 0 1 1 0 0 1 2 2 0 1 1 1 2 2 2 1 1 1 1 1 1 1 1 2 3 4 6 8 9 9 10 10 9 9 9 10 10 11 10 10
1 1 1 1 0 0 0 0 1 1 2 1 0 1 0 1 1 1 2 1 1 1 2 1 2 2 2 3 4 6 7 9 10 10 11 10 10 10 10 10 11 11 10
2 2 1 1 0 0 0 0 1 1 1 1 1 0 1 1 1 1 2 2 2 2 2 2 2 2 2 3 4 6 8 9 10 11 12 11 11 11 11 11 11 10 10
0 2 1 1 1 0 1 1 1 1 1 1 1 1 1 0 0 0 2 2 3 3 2 1 1 1 2 3 5 7 8 9 10 10 11 11 11 11 11 11 11 10 10
0 1 1 1 0 0 1 1 1 1 2 2 1 1 0 0 1 1 1 2 3 3 2 1 1 1 3 4 6 8 9 10 10 10 11 11 11 11 11 11 10 10 10
1 1 0 0 1 0 0 0 1 1 1 1 1 1 0 0 0 1 1 1 2 3 2 2 1 1 3 5 7 9 8 10 11 11 11 10 10 10 10 10 9 10 10
0 0 0 0 0 1 1 1 1 1 1 1 1 1 1 0 0 1 1 1 1 2 3 2 1 2 5 5 8 7 8 10 11 11 10 10 10 9 9 9 9 9 9
1 1 0 0 1 1 1 2 1 1 1 1 1 1 1 0 0 0 0 1 1 2 3 3 2 3 5 6 8 8 8 10 10 10 10 9 8 8 9 9 9 9 10
1 1 1 0 1 1 1 2 1 1 1 1 0 1 0 0 0 1 0 1 1 1 3 4 3 3 3 4 6 8 8 8 8 10 10 9 9 9 9 9 9 10 10
1 1 1 1 1 1 1 1 1 1 1 1 0 1 0 0 1 1 0 1 1 1 2 5 4 3 3 3 4 5 7 7 8 9 10 10 9 9 9 9 9 9 9
1 0 1 1 1 1 1 1 1 1 1 0 0 0 1 0 1 1 1 1 2 1 2 3 4 3 3 3 4 5 5 5 7 9 9 10 10 10 9 10 9 9 9
1 1 1 1 1 1 1 1 1 1 1 0 0 1 1 1 1 1 1 2 1 1 1 2 4 3 3 3 3 5 6 5 5 6 8 9 10 10 10 10 10 10 9
1 1 0 0 0 1 1 1 1 2 1 0 1 1 1 2 3 2 2 2 1 1 1 2 3 3 3 3 4 4 6 6 5 3 5 6 7 6 8 9 9 10 10
0 1 0 0 0 0 1 1 1 2 1 0 1 1 2 2 3 4 4 3 2 2 2 2 3 4 4 4 4 4 5 6 4 3 5 7 5 5 6 7 9 10 10
0 0 0 0 0 1 1 1 1 2 1 0 1 1 2 2 3 2 3 4 4 4 4 3 4 4 4 4 4 4 4 5 5 5 5 5 4 5 6 8 11 10 9
0 0 1 0 0 1 2 2 1 2 1 0 0 0 1 2 3 2 2 2 3 3 3 2 3 4 4 4 4 4 4 5 5 4 2 3 4 5 7 8 9 10 11
0 0 0 0 0 1 2 2 2 2 1 0 1 1 1 2 4 5 3 3 4 4 4 5 5 5 5 5 4 2 3 3 4 4 1 2 3 5 5 4 7 10 11
0 1 1 1 0 1 2 2 2 2 1 1 1 1 3 4 6 6 3 2 4 4 4 5 4 4 4 4 4 2 2 3 3 3 2 2 3 4 4 4 4 7 9
Wind_Direction
56 42 40 42 33 37 44 51 58 66 60 87 105 118 123 130 139 138 152 152 143 146 123 22 356 351 348 355 2 356 349 349 349 345 342 338 336 335 331 330 326 324 322
73 48 27 29 18 21 32 62 91 100 76 94 120 121 117 135 139 129 130 166 164 158 180 316 331 333 337 339 346 345 343 343 346 343 339 335 329 324 321 322 324 323 321
76 67 37 6 3 17 35 59 77 80 90 84 100 117 115 133 135 125 124 130 149 195 230 298 324 323 326 329 335 336 337 337 338 336 330 326 321 316 314 314 317 320 321
62 64 35 344 1 27 48 84 101 79 93 84 112 212 151 150 157 143 126 125 112 299 270 308 324 321 323 326 329 334 335 333 330 329 326 320 317 316 315 314 315 316 315
44 48 15 350 5 23 30 61 98 107 145 78 103 144 186 198 204 156 141 142 157 151 304 306 325 323 316 320 325 330 332 325 323 325 325 323 318 315 315 314 312 310 312
21 34 12 347 3 7 16 26 106 70 64 153 133 49 280 228 205 194 215 216 210 205 295 341 338 324 315 317 321 326 325 321 322 324 323 319 315 315 315 310 309 308 308
17 35 351 326 325 225 228 230 145 118 61 34 80 36 334 267 220 224 227 227 247 243 183 6 343 335 317 318 321 325 324 321 323 322 320 315 312 311 311 309 308 308 306
11 287 246 260 274 257 79 107 109 129 109 67 122 130 331 317 295 258 252 223 222 253 319 328 324 331 329 323 315 321 321 320 319 320 318 314 311 311 310 309 308 306 305
1 2 307 290 277 216 173 143 134 127 154 81 77 132 154 235 301 298 258 253 235 219 238 298 299 300 310 317 316 320 325 326 320 320 319 318 314 311 312 311 310 310 309
5 6 359 337 327 29 93 186 121 132 150 163 39 28 10 181 190 299 293 271 266 245 246 266 283 295 301 309 315 319 323 323 323 320 320 319 315 312 311 310 311 311 312
12 8 9 17 5 339 153 138 124 119 144 150 137 35 21 22 43 205 272 296 309 274 260 263 266 290 312 322 322 320 324 324 322 322 320 318 317 313 312 311 312 311 310
350 8 11 10 2 319 203 195 177 151 145 124 113 117 130 171 224 250 264 281 299 302 293 271 266 298 333 337 332 329 328 324 322 322 321 317 316 314 312 311 312 311 307
292 305 351 318 308 280 245 188 174 173 172 160 157 170 139 4 260 236 222 288 303 309 303 276 262 328 346 343 331 331 328 327 323 321 318 317 316 314 312 311 313 313 311
232 244 283 319 323 33 58 141 155 185 158 169 172 166 147 18 328 198 205 244 309 307 304 297 308 328 342 337 328 333 328 327 324 320 317 316 314 312 312 311 313 314 313
219 32 319 65 8 88 95 98 130 180 164 173 174 157 154 69 20 274 236 204 211 283 284 291 316 322 335 332 328 334 330 325 325 323 320 316 312 313 314 312 313 311 310
172 159 121 75 88 90 100 98 90 98 135 188 177 145 121 308 6 332 245 288 263 250 275 281 278 301 314 327 330 335 325 328 328 323 320 318 316 316 318 317 311 308 306
168 182 173 141 120 113 103 101 89 114 110 81 72 137 136 67 35 355 316 284 308 279 278 293 287 302 308 321 330 332 329 327 327 326 323 323 323 320 318 315 312 310 309
178 201 173 150 145 125 113 112 100 113 113 91 29 56 4 22 24 336 300 283 290 290 273 290 299 306 310 316 321 319 329 329 331 328 331 328 324 322 319 316 315 314 313
151 160 175 191 179 162 157 147 137 115 102 147 4 315 298 317 327 319 310 292 287 303 288 287 293 301 310 321 327 325 323 324 333 332 333 334 330 325 323 320 320 319 318
159 190 220 222 190 171 171 153 126 116 100 29 320 287 281 278 280 295 312 301 296 316 316 305 298 309 316 320 329 332 332 332 326 330 335 333 330 329 326 325 323 321 319
169 170 148 324 180 166 172 158 140 123 113 12 328 309 299 309 316 311 315 310 311 307 309 311 310 316 322 334 333 325 324 327 322 329 329 328 326 325 323 319 319 319 319
97 92 174 252 226 240 275 308 97 125 132 199 308 327 328 334 337 336 323 324 318 294 295 297 304 304 308 314 316 319 325 331 321 335 333 316 318 308 315 319 318 321 323
111 101 290 226 213 283 319 333 64 115 126 164 298 315 335 337 339 323 325 333 329 326 311 284 283 289 296 299 303 307 310 310 300 307 322 303 313 308 313 314 320 321 320
139 220 268 263 2 314 333 342 35 104 110 216 276 290 314 317 320 321 324 336 324 316 311 304 278 278 285 286 276 286 292 302 296 294 304 289 305 304 310 313 319 326 324
7 307 305 288 226 310 333 347 33 107 97 34 351 348 324 305 315 331 348 335 328 326 332 328 315 316 319 319 322 317 316 321 317 310 328 300 305 310 304 299 319 326 329
283 342 3 5 15 287 336 7 45 110 93 11 351 354 342 332 324 336 345 327 320 316 326 332 336 343 331 321 331 318 283 296 308 300 321 327 309 326 316 300 313 326 327
Height
1507 1507 1507 1508 1509 1509 1510 1511 1511 1512 1513 1514 1516 1517 1518 1519 1520 1520 1521 1522 1522 1522 1522 1521 1521 1521 1520 1520 1519 1518 1517 1515 1514 1513 1511 1510 1509 1508 1507 1505 1504 1503 1502
1505 1505 1505 1506 1507 1507 1508 1508 1509 1510 1511 1512 1513 1515 1515 1516 1517 1518 1519 1520 1520 1520 1520 1519 1519 1519 1518 1517 1517 1516 1514 1513 1512 1510 1509 1508 1506 1505 1504 1503 1502 1500 1499
1503 1503 1504 1504 1504 1505 1505 1506 1507 1507 1509 1509 1511 1512 1513 1514 1515 1516 1517 1517 1518 1518 1518 1517 1517 1516 1516 1515 1514 1513 1512 1511 1509 1508 1507 1505 1504 1503 1501 1500 1499 1498 1497
1501 1501 1502 1502 1502 1503 1503 1504 1504 1505 1506 1507 1508 1509 1510 1511 1512 1513 1514 1515 1515 1515 1515 1515 1514 1514 1513 1512 1511 1510 1509 1508 1507 1505 1504 1502 1501 1500 1498 1497 1496 1495 1494
1499 1499 1499 1500 1500 1500 1501 1501 1502 1502 1503 1504 1505 1506 1507 1508 1510 1511 1511 1512 1512 1512 1513 1512 1512 1511 1510 1510 1509 1508 1507 1505 1504 1502 1501 1500 1498 1497 1495 1494 1493 1492 1491
1496 1497 1497 1497 1497 1498 1498 1499 1499 1500 1501 1502 1502 1503 1504 1506 1507 1508 1509 1509 1510 1510 1510 1510 1509 1509 1508 1507 1506 1505 1504 1503 1501 1500 1498 1497 1495 1494 1492 1491 1490 1489 1487
1493 1494 1494 1495 1495 1495 1496 1496 1496 1498 1499 1499 1500 1501 1502 1503 1503 1505 1506 1506 1506 1506 1506 1506 1506 1506 1505 1504 1503 1502 1501 1500 1498 1497 1496 1494 1492 1491 1489 1488 1487 1485 1484
1491 1491 1492 1492 1492 1493 1493 1493 1493 1495 1496 1497 1498 1498 1499 1501 1500 1501 1502 1503 1503 1503 1503 1503 1503 1502 1502 1501 1500 1499 1498 1497 1496 1494 1493 1491 1490 1488 1486 1485 1483 1482 1481
1488 1489 1490 1490 1490 1490 1490 1491 1492 1492 1493 1495 1496 1497 1497 1497 1497 1498 1499 1499 1500 1500 1500 1500 1500 1499 1499 1498 1497 1496 1495 1494 1493 1491 1490 1488 1486 1485 1483 1482 1480 1479 1477
1486 1487 1487 1488 1488 1488 1488 1489 1489 1490 1491 1492 1494 1494 1496 1495 1496 1495 1496 1497 1497 1497 1497 1496 1496 1496 1496 1495 1494 1493 1492 1491 1490 1488 1487 1485 1483 1482 1480 1478 1477 1475 1474
1483 1484 1485 1485 1486 1486 1487 1487 1488 1488 1490 1490 1491 1491 1492 1493 1493 1493 1492 1493 1493 1493 1493 1493 1493 1493 1492 1491 1490 1489 1489 1487 1486 1485 1483 1482 1480 1478 1477 1475 1474 1472 1470
1481 1482 1482 1482 1483 1484 1485 1485 1486 1487 1487 1488 1489 1489 1490 1490 1490 1491 1490 1489 1489 1489 1489 1490 1489 1489 1489 1488 1487 1486 1485 1484 1483 1481 1480 1478 1476 1474 1473 1471 1470 1468 1467
1478 1479 1479 1480 1481 1482 1482 1483 1483 1484 1485 1486 1486 1487 1488 1488 1488 1489 1488 1487 1486 1485 1486 1486 1486 1486 1485 1485 1484 1483 1482 1480 1479 1478 1476 1474 1472 1471 1469 1468 1466 1465 1463
1476 1477 1477 1478 1478 1479 1480 1480 1481 1481 1482 1483 1484 1485 1485 1486 1486 1486 1486 1486 1484 1483 1482 1482 1482 1482 1482 1481 1480 1479 1478 1477 1475 1474 1472 1470 1469 1467 1465 1464 1463 1461 1459
1474 1474 1475 1475 1476 1476 1477 1477 1478 1479 1480 1481 1482 1482 1482 1483 1483 1484 1484 1484 1484 1481 1479 1478 1479 1479 1478 1477 1476 1475 1474 1472 1471 1469 1468 1467 1465 1464 1462 1460 1459 1457 1456
1472 1472 1472 1472 1473 1473 1474 1475 1475 1476 1477 1478 1479 1479 1480 1481 1481 1481 1481 1481 1481 1480 1477 1476 1476 1475 1474 1473 1472 1471 1470 1469 1467 1466 1464 1463 1462 1460 1458 1457 1455 1453 1452
1470 1470 1470 1470 1471 1471 1472 1472 1473 1474 1474 1475 1476 1476 1477 1478 1478 1478 1478 1478 1477 1477 1475 1473 1473 1472 1471 1470 1468 1467 1466 1464 1463 1462 1461 1459 1458 1456 1455 1453 1451 1450 1448
1468 1468 1468 1468 1469 1469 1470 1470 1470 1471 1472 1472 1473 1473 1474 1475 1475 1475 1475 1474 1474 1474 1473 1470 1469 1468 1467 1466 1464 1463 1462 1460 1459 1458 1457 1456 1454 1453 1451 1449 1448 1446 1444
1465 1466 1466 1466 1467 1467 1467 1468 1468 1469 1470 1470 1470 1471 1472 1472 1472 1472 1471 1471 1471 1471 1470 1468 1465 1464 1463 1462 1461 1460 1458 1457 1456 1455 1454 1452 1451 1449 1447 1446 1444 1442 1441
1464 1464 1464 1464 1465 1465 1465 1466 1466 1467 1468 1468 1468 1469 1469 1469 1469 1469 1469 1469 1468 1467 1466 1465 1463 1461 1460 1459 1458 1456 1454 1453 1452 1451 1450 1449 1447 1446 1444 1442 1440 1438 1437
1462 1462 1462 1462 1463 1463 1464 1464 1464 1465 1465 1466 1466 1467 1467 1467 1467 1467 1466 1466 1465 1464 1463 1462 1461 1459 1458 1456 1455 1453 1451 1450 1449 1448 1446 1445 1443 1442 1440 1438 1437 1435 1433
1460 1460 1460 1460 1461 1461 1462 1462 1462 1462 1463 1463 1463 1464 1464 1464 1464 1464 1464 1463 1463 1462 1461 1460 1459 1457 1455 1454 1453 1451 1449 1447 1445 1445 1443 1441 1440 1438 1436 1435 1433 1431 1429
1458 1458 1458 1459 1459 1460 1460 1460 1461 1461 1461 1461 1461 1461 1461 1461 1461 1461 1461 1461 1460 1459 1459 1458 1457 1455 1453 1452 1451 1449 1447 1446 1444 1442 1440 1438 1437 1435 1433 1431 1430 1428 1426
1457 1457 1457 1457 1457 1458 1458 1458 1459 1458 1459 1459 1459 1459 1459 1459 1459 1459 1458 1458 1457 1456 1455 1455 1454 1452 1451 1450 1449 1447 1446 1444 1442 1440 1438 1436 1433 1431 1430 1428 1427 1425 1423
1455 1455 1455 1455 1455 1456 1456 1457 1457 1456 1456 1457 1457 1457 1457 1457 1456 1456 1455 1454 1453 1453 1452 1451 1450 1449 1449 1448 1447 1445 1443 1441 1438 1437 1436 1434 1431 1428 1426 1426 1424 1422 1420
1453 1453 1453 1453 1454 1454 1455 1455 1455 1455 1454 1455 1455 1455 1455 1454 1454 1453 1452 1451 1451 1450 1449 1448 1448 1447 1446 1445 1444 1442 1441 1439 1437 1435 1434 1432 1429 1427 1424 1422 1421 1419 1417